User: anonymous   Login
Location: Indian Springs
(36.5700°N, 115.6700°W)
Time: 08:26:04
(UTC-07:00)
Language:

Cosmos 2278 Rocket - Orbit

View from above orbital plane
View from above orbital plane
View from above satellite
View from above satellite

Ground track
Ground track

The orbit data is extracted from the following two-line orbital elements,

1 23088U 94023B   18145.78930592 -.00000040  00000-0  42482-5 0  9991
2 23088  70.9995 282.9791 0005210 286.7313  73.3237 14.14663106243992
Epoch (UTC): 25 May 2018 18:56:36
Eccentricity: 0.0005210
inclination: 70.9995°
perigee height: 839 km
apogee height: 847 km
right ascension of ascending node: 282.9791°
argument of perigee: 286.7313°
revolutions per day: 14.14663106
mean anomaly at epoch: 73.3237°
orbit number at epoch: 24399

The dashed part of the orbit path shows where the satellite is in the earth's shadow,  

DLR